Location: Buensen
(51.7527°N, 9.8966°E)
Time: 19:19:06
(UTC+00:00)

Daily predictions for brighter satellites

Satellite Brightness Start Highest point End
(mag) Time Altitude Azimuth Time Altitude Azimuth Time Altitude Azimuth
Cosmos 2233 Rocket 4.5 17:46:42 10° SSW 17:52:49 68° WNW 17:59:02 10° N
USA 267 3.5 17:46:58 10° ENE 17:53:33 79° NNW 18:00:07 10° WSW
Cosmos 1943 Rocket 2.6 17:48:45 10° NW 17:54:15 69° WSW 17:59:44 10° SSE
KORONAS-FOTON 4.1 17:51:15 10° NNW 17:54:56 70° W 17:58:35 10° S
Cosmos 2150 Rocket 4.1 17:50:05 10° NNW 17:55:12 60° ENE 18:00:16 10° SE
Iridium 4 Rocket 3.2 17:51:11 10° N 17:55:21 79° W 17:59:39 10° S
USA 186 3.4 17:53:17 10° ESE 17:55:35 18° ENE 17:57:54 10° NNE
SJ-6B 3.1 17:52:40 10° SE 17:56:02 40° ENE 17:59:26 10° N
Okean 3 Rocket 3.7 17:52:17 10° S 17:56:36 53° E 18:00:53 10° NNE
SL-08 R/B 4.0 17:53:11 10° NNE 17:57:43 36° E 18:02:13 10° SSE
NOSS 3-3 (A) 4.0 17:52:34 10° SSW 17:57:46 49° ESE 18:03:51 10° NE
Cosmos 2298 Rocket 4.1 17:53:00 10° NNW 17:58:17 64° ENE 18:03:33 10° SE
Cosmos 1408 Rocket 4.2 17:54:44 10° SSE 17:58:43 34° E 18:02:45 10° NNE
SeaSat 1 2.6 17:56:12 10° NE 18:01:02 53° ESE 18:05:50 10° SSW
Helios 1A 3.9 17:58:03 10° NE 18:01:31 26° E 18:04:57 10° SSE
Cosmos 158 Rocket 3.9 17:58:00 10° S 18:02:44 54° ESE 18:07:30 10° NNE
Cosmos 1513 Rocket 4.4 17:58:59 10° S 18:05:00 70° E 18:11:10 10° NNE
Sich 1 3.8 18:02:13 10° SSE 18:05:56 29° E 18:09:41 10° NNE
GEOS 3 Rocket 4.3 18:01:18 10° E 18:06:09 41° NNE 18:10:59 10° NW
COSMO-SKYMED 1 3.3 18:02:16 10° N 18:06:34 59° WNW 18:10:50 10° SSW
Okean O Rocket 3.0 18:04:04 10° ESE 18:07:20 21° ENE 18:10:37 10° NNE
Cosmos 1656 Rocket 4.0 18:02:31 10° NNW 18:08:02 52° NE 18:13:29 10° SE
CARTOSAT-1 4.3 18:04:31 10° SE 18:08:18 32° ENE 18:12:05 10° N
Cosmos 2297 4.1 18:04:00 10° NNW 18:09:28 48° NE 18:14:56 10° SE
Cosmos 1607 4.4 18:04:58 10° S 18:10:54 40° ESE 18:16:48 10° NE
Aureole 3 Rocket 4.0 18:07:32 10° SSE 18:12:09 30° E 18:15:43 10° NNE
Cosmos 2369 Rocket 2.7 18:08:49 10° NNW 18:14:19 45° NE 18:19:41 10° ESE
Helios 1B rocket 3.4 18:12:27 10° S 18:16:10 47° W 18:19:54 10° NNW
CZ-4 R/B 1.5 18:12:32 10° SE 18:16:18 49° ENE 18:20:08 10° N
GRACE-FO 1 4.4 18:13:00 10° SSE 18:16:29 64° E 18:19:59 10° N
GRACE-FO 2 4.4 18:13:26 10° S 18:16:55 65° E 18:20:25 10° N
TRACE 4.3 18:13:39 10° NNE 18:17:01 64° ESE 18:20:20 10° S
Meteor 1-23 Rocket 4.4 18:11:31 10° N 18:17:05 55° ENE 18:22:40 10° SSE
SPOT 5 4.4 18:14:53 11° E 18:17:15 16° ENE 18:19:51 10° NNE
PAYLOAD B 4.4 18:11:55 10° SE 18:17:22 55° ENE 18:22:50 10° N
Cosmos 1464 Rocket 4.0 18:12:43 10° S 18:19:01 69° E 18:25:22 10° NNE
ARIANE 6 FM1 Upper Stage 4.4 18:18:29 10° SSE 18:20:49 14° ESE 18:21:46 14° ESE
NOSS 3-4 (A) 3.8 18:14:18 10° NW 18:20:56 75° NE 18:28:32 10° SE
NOSS 3-4 (C) 3.8 18:14:24 10° NW 18:21:02 74° NE 18:28:36 11° SE
Cosmos 1980 3.9 18:15:37 10° SSW 18:21:18 82° WNW 18:27:03 10° NNE
Terra 3.8 18:22:31 10° ENE 18:24:14 12° NE 18:25:58 10° NNE
CZ-4B R/B 3.0 18:22:03 10° SSE 18:26:02 60° ENE 18:30:12 10° N
Meteor 1-13 Rocket 4.4 18:20:36 10° NNW 18:26:27 85° W 18:32:09 10° S
Cosmos 2228 Rocket 4.0 18:25:29 10° N 18:29:33 30° ENE 18:32:38 15° SE
Cosmos 1805 Rocket 3.8 18:25:33 10° SSE 18:29:39 45° E 18:33:50 10° NNE
Cosmos 1441 Rocket 4.1 18:29:41 11° SE 18:32:24 23° E 18:35:17 10° NE
Resurs 01 Rocket 1.7 18:31:07 10° SSE 18:35:26 56° ENE 18:39:47 10° N
Cosmos 1975 3.4 18:32:04 10° SSE 18:35:32 32° E 18:39:02 10° NNE
Okean-O 3.8 18:39:41 19° E 18:41:37 25° ENE 18:45:14 10° N
Feng Yun 1-1 Rocket 4.4 18:36:08 10° SSE 18:41:55 63° ENE 18:47:47 10° N
Cosmos 1862 Rocket 4.4 18:38:18 10° N 18:42:19 32° ENE 18:44:35 20° ESE
Cosmos 1707 Rocket 4.1 18:41:22 10° N 18:45:30 38° ENE 18:47:57 21° SE
Cosmos 2034 Rocket 3.9 18:40:03 10° S 18:46:11 74° E 18:52:20 10° NNE
USA 306 2.5 18:43:41 10° WNW 18:46:56 67° NNE 18:48:52 25° E
ISS -3.8 18:44:08 10° W 18:47:30 89° N 18:49:13 27° E
Meteor PRIRODA 4.1 18:44:20 10° S 18:47:33 53° W 18:50:47 10° NNW
ERS-1 Rocket 4.4 18:46:19 18° E 18:48:12 22° ENE 18:51:58 10° N
Cosmos 2208 Rocket 4.2 18:46:48 10° SSW 18:52:06 76° WNW 18:57:32 10° NNE
Cosmos 1666 Rocket 4.4 18:51:16 23° ESE 18:52:41 28° E 18:56:24 10° NNE
Meteor 2-12 Rocket 4.5 18:46:48 10° N 18:52:57 63° ENE 18:59:03 10° SSE
ACS3 Solar Sail 2.0 18:48:36 11° SSE 18:54:48 60° ENE 19:01:05 10° N
Cosmos 1733 4.5 18:51:51 10° SW 18:55:05 39° WNW 18:58:19 10° N
SL-16 R/B 2.2 18:50:29 10° SSW 18:56:04 62° ESE 19:01:40 10° NE
Cosmos 1315 Rocket 4.1 18:52:41 10° NNW 18:56:28 42° W 19:00:12 10° SSW
Cosmos 1805 3.0 18:55:02 10° S 18:58:40 85° W 19:02:21 10° N
Okean 3 3.7 19:02:59 10° N 19:07:04 49° ENE 19:08:31 33° SE
SL-14 R/B 3.7 19:05:03 10° NNW 19:08:50 59° W 19:12:36 10° S
Cosmos 1943 3.9 19:07:43 26° SE 19:09:09 29° ESE 19:13:56 10° NE
ATLAS CENTAUR R/B 3.1 19:06:00 10° W 19:09:13 28° NNW 19:12:36 10° NNE
Meteor 1-11 Rocket 4.3 19:03:44 10° SSW 19:09:13 59° WNW 19:14:42 10° N
ATLAS 2AS CENTAUR R/B 3.9 19:05:03 10° NW 19:11:16 32° N 19:16:26 13° ENE
Cosmos 783 Rocket 4.4 19:06:49 10° S 19:12:00 63° ESE 19:17:11 10° NNE
SL-24 R/B 4.4 19:09:51 24° SSE 19:12:36 56° E 19:17:23 10° N
Meteor 1-21 4.3 19:08:09 10° NNW 19:13:57 84° W 19:19:46 10° S
PSLV R/B 3.7 19:14:51 46° E 19:15:12 48° ENE 19:18:33 10° N
CSL-04 Rocket 3.7 19:11:58 11° SSE 19:17:01 80° WSW 19:22:20 10° NNW
Cosmos 2263 4.1 19:12:37 10° NNW 19:18:22 85° ENE 19:21:31 28° SSE
Ariane Rocket 4.2 19:17:38 23° ENE 19:18:28 24° ENE 19:22:28 10° N
CZ-4B R/B 3.4 19:13:30 10° S 19:18:52 71° WSW 19:24:13 10° NNW
MOS 1 4.3 19:17:16 27° SE 19:20:18 61° ENE 19:25:54 10° N
USA 186 3.3 19:24:40 14° SSW 19:27:04 34° W 19:30:04 10° NNW
Cosmos 773 Rocket 4.5 19:27:33 10° SW 19:32:48 62° WNW 19:38:04 10° NNE
Cosmos 1743 Rocket 4.4 19:30:02 10° SSW 19:34:14 50° WNW 19:38:31 10° N
Cosmos 2237 Rocket 3.9 19:29:56 10° WSW 19:34:58 33° NW 19:40:02 10° NNE
USA 267 3.7 19:31:14 17° ENE 19:36:17 57° N 19:42:41 10° WNW
Cosmos 2026 Rocket 4.5 19:30:22 10° NNW 19:36:26 59° W 19:42:22 10° S
Helios 1A 4.4 19:32:52 10° N 19:36:38 37° WNW 19:40:24 10° SW
SeaSat 1 4.1 19:33:54 10° NNE 19:38:19 34° NW 19:42:42 10° WSW
Cosmos 2266 Rocket 4.2 19:34:44 10° N 19:40:55 53° ENE 19:42:48 40° ESE
Cosmos 724 4.4 19:35:10 10° SW 19:40:57 73° NW 19:46:48 10° NE
Cosmos 1766 2.9 19:41:42 84° S 19:41:49 89° ESE 19:45:32 10° N
Okean O Rocket 2.0 19:41:03 28° S 19:43:13 61° WSW 19:47:36 10° NNW
GEOS 3 Rocket 3.9 19:41:58 36° SSE 19:44:03 62° SW 19:49:11 10° NW
CZ-4 R/B 3.9 19:48:17 10° SW 19:51:05 19° W 19:53:55 10° NW
SL-24 R/B - RUBIN 2 4.5 19:46:03 10° NW 19:52:30 64° NE 19:54:07 47° E
SPOT 5 2.6 19:54:01 62° S 19:54:44 82° WSW 19:59:06 10° NNW
Cosmos 1607 4.5 19:51:35 10° WSW 19:57:59 61° NW 20:04:22 10° NE
Cosmos 2369 Rocket 3.2 19:53:00 10° NW 19:58:20 41° WSW 20:01:28 22° SSW
Okean 2 3.4 19:55:05 10° NNW 19:59:06 73° W 19:59:08 73° WSW
ARIANE 6 FM1 Upper Stage 3.4 19:55:12 10° SW 19:58:11 44° SW 19:58:11 44° SW
Cosmos 1420 Rocket 4.3 19:55:17 10° NNW 20:00:20 48° ENE 20:00:34 47° ENE
Cosmos 2344 4.2 19:53:06 10° NW 20:00:39 55° NNE 20:05:08 32° E
Terra 1.8 20:00:58 62° ENE 20:00:58 62° ENE 20:05:36 10° N
BREEZE-M DEB (TANK) 3.6 19:44:53 10° W 20:02:03 70° SSW 20:03:29 51° SE
Aureole 3 3.8 19:58:23 10° N 20:02:57 89° W 20:03:54 61° S
Okean 1-7 3.0 20:03:10 10° NNW 20:07:26 75° W 20:07:26 75° W
Cosmos 2228 Rocket 4.5 20:03:33 10° NNW 20:07:46 37° W 20:10:04 22° SW
Cosmos 1633 Rocket 3.4 20:09:44 50° SW 20:10:39 64° WNW 20:15:03 10° N
Resurs 01 Rocket 4.0 20:08:56 10° SW 20:12:12 20° W 20:15:29 10° NW
MetOp-B 4.3 20:11:40 46° SSW 20:13:09 67° WSW 20:18:32 10° NNW
Cosmos 2084 Rocket 3.7 20:09:05 10° WSW 20:13:12 65° NW 20:13:12 65° NW
Cosmos 1538 Rocket 3.9 20:13:37 69° S 20:14:14 81° ESE 20:19:38 10° NNE
RESURS DK-1 3.9 20:12:16 10° NNW 20:14:56 27° NNE 20:14:56 27° NNE
Cosmos 1656 4.3 20:10:32 10° NNW 20:15:57 42° NE 20:16:15 42° ENE
Meteor 1-24 Rocket 4.2 20:11:06 10° N 20:16:38 46° ENE 20:16:38 46° ENE
Cosmos 1980 Rocket 4.1 20:13:49 10° NNW 20:17:25 17° NNE 20:19:05 15° NE
Okean-O 3.4 20:17:08 43° SW 20:17:46 47° W 20:22:03 10° NNW
USA 306 4.3 20:16:00 10° WNW 20:17:50 27° W 20:17:50 27° W
MOS 1 Rocket 3.9 20:20:11 51° SSW 20:21:19 64° W 20:26:41 10° NNW
SL-08 ROCKET BODY 4.4 20:15:52 10° N 20:22:03 85° W 20:23:16 60° S
Spot 2 Rocket 3.4 20:23:41 78° NNE 20:23:41 78° NNE 20:28:32 10° NNW
ISS -1.3 20:20:56 10° W 20:22:09 20° W 20:22:09 20° W
ERS-1 Rocket 3.0 20:26:14 70° SW 20:26:28 72° WSW 20:31:31 10° NNW
IRS-1A Rocket 4.5 20:27:24 54° SSW 20:28:31 66° WSW 20:34:08 10° NNW
Cosmos 1470 Rocket 4.2 20:33:03 56° NW 20:33:03 56° NW 20:36:59 10° N
Cosmos 1703 Rocket 4.2 20:28:45 10° NNW 20:32:25 55° NW 20:32:25 55° NW
ACS3 Solar Sail 3.4 20:33:50 11° SSW 20:39:10 31° W 20:44:49 10° NNW
SL-16 R/B 3.9 20:35:28 10° WSW 20:40:33 33° NW 20:45:39 10° NNE
SPOT 3 Rocket 3.6 20:41:30 71° NNW 20:41:30 71° NNW 20:46:05 10° NNW
Cosmos 1371 Rocket 4.2 20:36:10 10° NNW 20:40:37 63° N 20:40:37 63° N
Meteor 2-5 Rocket 3.9 20:39:06 10° N 20:44:37 69° NE 20:44:37 69° NE
ATLAS CENTAUR R/B 4.1 20:45:48 10° NW 20:47:45 13° N 20:49:32 11° NNE
Cosmos 1624 Rocket 4.3 20:44:59 10° NNW 20:49:24 62° NNW 20:49:24 62° NNW
Cosmos 1943 3.6 20:49:01 20° SW 20:52:50 60° NW 20:58:28 10° NNE
Cosmos 1603 4.3 20:55:35 49° NNE 20:55:35 49° NNE 20:59:39 10° NNE
Ariane Rocket 3.5 20:57:45 57° WNW 20:57:45 57° WNW 21:02:03 10° NNW
Cosmos 1697 Rocket 3.6 20:53:48 10° NNW 20:58:31 38° NNE 20:58:31 38° NNE
Cosmos 1655 Rocket 4.1 20:56:47 10° NNW 21:03:08 68° W 21:03:30 66° WSW
ATLAS 2AS CENTAUR R/B 2.8 20:56:39 10° NW 21:03:29 60° NE 21:03:49 59° NE
USA 267 3.3 21:18:34 68° NE 21:18:57 69° NNE 21:25:29 10° WNW
Cosmos 2056 Rocket 4.5 21:16:15 10° NNW 21:20:08 44° WNW 21:20:08 44° WNW
Terra 4.0 21:39:40 19° WNW 21:39:40 19° WNW 21:42:24 10° NW
SL-16 R/B 4.2 21:48:29 10° NNW 21:52:37 20° NNE 21:53:04 20° NE
Cosmos 1980 Rocket 3.5 21:57:17 10° NNW 22:00:49 36° N 22:00:49 36° N
Cosmos 2333 Rocket 4.5 22:04:17 10° NNW 22:07:57 17° NNE 22:09:33 15° NE
Cosmos 2344 4.1 22:07:22 10° NW 22:15:07 60° WSW 22:15:07 60° WSW
Cosmos 2360 Rocket 4.1 22:46:18 10° NNW 22:50:34 24° NNE 22:50:34 24° NNE
ATLAS 2AS CENTAUR R/B 4.1 22:47:52 10° NW 22:51:13 28° WNW 22:51:13 28° WNW
Cosmos 2219 Rocket 4.4 22:58:58 10° NNW 23:02:59 19° NNE 23:04:14 18° NE
Cosmos 2322 Rocket 3.9 23:03:29 10° NNW 23:07:17 29° NNE 23:07:17 29° NNE
Cosmos 2082 Rocket 4.0 23:26:45 25° NE 23:26:45 25° NE 23:29:01 10° NE
SL-16 R/B 3.9 23:32:10 10° NNW 23:34:52 29° NNW 23:34:52 29° NNW
CZ-3B R/B 4.5 23:24:40 10° WNW 23:36:26 44° W 23:36:26 44° W
Cosmos 2333 Rocket 3.7 23:48:08 10° NNW 23:51:31 33° N 23:51:31 33° N
